DW1824 Weather Reports


time (UTC)temp
C
wind
direction
speed
KPH
gust
KPH
rain 1hr
cm
rain 24hr
cm
rain mn
cm
humidity
%
barometer
mb
20260510120352 22 104 0.0 3.2 0.00 0.00 0.00 95 1012.5
20260510115323 22 133 3.2 4.8 0.00 0.00 0.00 95 1012.3
20260510114333 22 135 1.6 6.4 0.00 0.00 0.00 94 1012.1
20260510113342 22 158 0.0 8.0 0.00 0.00 0.00 94 1011.8
20260510112328 22 150 1.6 6.4 0.00 0.00 0.00 95 1011.7
20260510111338 22 145 3.2 6.4 0.00 0.00 0.00 94 1011.6
20260510110348 22 142 1.6 4.8 0.00 0.00 0.00 94 1011.6
20260510105337 22 122 0.0 4.8 0.00 0.00 0.00 94 1011.4
20260510104350 22 140 3.2 6.4 0.00 0.00 0.00 94 1011.3
20260510103338 22 140 1.6 6.4 0.00 0.00 0.00 94 1011.3
20260510102328 22 138 3.2 6.4 0.00 0.00 0.00 94 1011.3
20260510101334 22 137 3.2 9.7 0.00 0.00 0.00 94 1011.2
20260510100325 22 137 1.6 8.0 0.00 0.00 0.00 94 1011.1
20260510095332 22 141 3.2 8.0 0.00 0.00 0.00 94 1011.1
20260510094342 22 130 1.6 4.8 0.00 0.00 0.00 94 1011.1
20260510093334 22 165 1.6 6.4 0.00 0.00 0.00 93 1011.0
20260510092343 22 144 3.2 16.1 0.00 0.00 0.00 93 1011.0
20260510091351 22 160 1.6 3.2 0.00 0.00 0.00 94 1011.1
20260510090339 22 135 1.6 4.8 0.00 0.00 0.00 94 1011.2
20260510085329 22 163 0.0 0.0 0.00 0.00 0.00 93 1011.4
20260510084335 22 90 0.0 3.2 0.00 0.00 0.00 93 1011.3
20260510083325 22 183 0.0 1.6 0.00 0.00 0.00 93 1011.4
20260510082356 22 139 0.0 1.6 0.00 0.00 0.00 93 1011.2
20260510081325 22 135 0.0 1.6 0.00 0.00 0.00 93 1011.2
20260510080332 22 135 1.6 3.2 0.00 0.00 0.00 92 1011.3
20260510075342 22 135 0.0 0.0 0.00 0.00 0.00 92 1011.3
20260510074330 22 106 0.0 0.0 0.00 0.00 0.00 91 1011.5
20260510073338 22 105 0.0 0.0 0.00 0.00 0.00 90 1011.6
20260510072326 23 105 0.0 0.0 0.00 0.00 0.00 90 1011.4
20260510071355 23 105 0.0 0.0 0.00 0.00 0.00 90 1011.4
20260510070328 23 115 0.0 3.2 0.00 0.00 0.00 90 1011.3
20260510065335 23 123 1.6 6.4 0.00 0.00 0.00 89 1011.4
20260510064324 23 128 3.2 4.8 0.00 0.00 0.00 88 1011.4
20260510063333 23 117 3.2 9.7 0.00 0.00 0.00 87 1011.4
20260510062341 23 127 6.4 11.3 0.00 0.00 0.00 87 1011.5
20260510061349 23 139 4.8 12.9 0.00 0.00 0.00 85 1011.3
20260510060333 23 131 6.4 11.3 0.00 0.00 0.00 85 1011.4
20260510055326 23 115 6.4 12.9 0.00 0.00 0.00 83 1011.5
20260510054333 23 129 6.4 11.3 0.00 0.00 0.00 82 1011.7
20260510053340 23 132 4.8 9.7 0.00 0.00 0.00 82 1011.7
20260510052328 23 139 4.8 8.0 0.00 0.00 0.00 81 1011.7
20260510051337 24 116 4.8 12.9 0.00 0.00 0.00 80 1011.7
20260510050326 24 117 8.0 14.5 0.00 0.00 0.00 79 1011.6
20260510045356 24 85 6.4 14.5 0.00 0.00 0.00 78 1011.6
20260510044329 24 119 8.0 12.9 0.00 0.00 0.00 78 1011.6
20260510043334 24 134 6.4 12.9 0.00 0.00 0.00 78 1011.6
20260510042344 24 98 8.0 12.9 0.00 0.00 0.00 77 1011.4
20260510041331 24 137 6.4 11.3 0.00 0.00 0.00 78 1011.5
20260510040358 23 100 4.8 9.7 0.00 0.00 0.00 78 1011.7
20260510035324 23 125 1.6 3.2 0.00 0.00 0.00 76 1011.7
20260510034332 24 106 1.6 6.4 0.00 0.00 0.00 74 1011.8
20260510033324 23 98 0.0 3.2 0.00 0.00 0.00 75 1011.6
20260510032331 23 105 1.6 4.8 0.00 0.00 0.00 75 1011.3
20260510031338 23 87 0.0 0.0 0.00 0.00 0.00 75 1011.0
20260510030325 23 86 0.0 1.6 0.00 0.00 0.00 76 1010.7
20260510025334 24 96 0.0 0.0 0.00 0.00 0.00 75 1010.3
20260510024343 25 177 0.0 1.6 0.00 0.00 0.00 72 1010.1
20260510023330 25 171 0.0 4.8 0.00 0.00 0.00 71 1009.9
20260510022358 25 172 1.6 4.8 0.00 0.00 0.00 71 1009.8
20260510021330 25 145 3.2 6.4 0.00 0.00 0.00 71 1009.9
20260510020338 25 152 3.2 6.4 0.00 0.00 0.00 69 1009.8
20260510015326 25 148 1.6 8.0 0.00 0.00 0.00 72 1009.5
20260510014336 25 137 3.2 9.7 0.00 0.00 0.00 71 1009.3
20260510013325 26 156 4.8 16.1 0.00 0.00 0.00 68 1009.3
20260510012335 26 145 0.0 8.0 0.00 0.00 0.00 68 1009.2
20260510011327 26 126 1.6 6.4 0.00 0.00 0.00 66 1009.0
20260510010358 27 125 0.0 0.0 0.00 0.00 0.00 65 1008.8
20260510005326 27 62 1.6 8.0 0.00 0.00 0.00 65 1008.9
20260510004335 28 135 4.8 9.7 0.00 0.00 0.00 67 1008.9
20260510003342 28 121 3.2 6.4 0.00 0.00 0.00 80 1008.9
20260510002351 28 115 0.0 0.0 0.00 0.00 0.00 81 1008.8
20260510001337 28 115 0.0 0.0 0.00 0.00 0.00 83 1008.7
20260510000326 28 115 0.0 0.0 0.00 0.00 0.00 84 1008.3
20260509235331 29 115 0.0 0.0 0.00 0.00 0.00 80 1008.2
20260509234400 29 115 0.0 0.0 0.00 0.00 0.00 80 1008.2
20260509233327 29 115 0.0 0.0 0.00 0.00 0.00 80 1008.4
20260509232353 29 115 0.0 0.0 0.00 0.00 0.00 78 1008.5
20260509231339 29 115 0.0 0.0 0.00 0.00 0.00 77 1008.4
20260509230328 29 115 0.0 0.0 0.00 0.00 0.00 78 1008.2
20260509225334 30 115 0.0 0.0 0.00 0.00 0.00 77 1008.3
20260509224328 30 115 0.0 0.0 0.00 0.00 0.00 73 1008.2
20260509223338 30 115 0.0 0.0 0.00 0.00 0.00 73 1008.1
20260509222325 30 115 0.0 1.6 0.00 0.00 0.00 70 1008.3
20260509221349 30 115 1.6 3.2 0.00 0.00 0.00 70 1007.9
20260509220331 30 107 0.0 0.0 0.00 0.00 0.00 70 1007.8
20260509215339 30 107 0.0 0.0 0.00 0.00 0.00 69 1008.0
20260509214330 30 107 0.0 0.0 0.00 0.00 0.00 71 1008.0
20260509213338 30 113 1.6 4.8 0.00 0.00 0.00 70 1008.1
20260509212344 31 319 0.0 4.8 0.00 0.00 0.00 65 1008.0
20260509211329 31 13 4.8 8.0 0.00 0.00 0.00 65 1008.1
20260509210338 31 292 0.0 0.0 0.00 0.00 0.00 66 1008.1
20260509205326 30 318 0.0 6.4 0.00 0.00 0.00 70 1008.4
20260509204334 30 100 0.0 3.2 0.00 0.00 0.00 71 1008.6
20260509203341 30 308 0.0 4.8 0.00 0.00 0.00 71 1008.6
20260509202333 30 171 0.0 4.8 0.00 0.00 0.00 71 1008.7
20260509201341 30 127 1.6 4.8 0.00 0.00 0.00 72 1008.8
20260509200330 30 54 1.6 4.8 0.00 0.00 0.00 74 1008.9
20260509195359 29 7 0.0 3.2 0.00 0.00 0.00 76 1009.0
20260509194326 30 340 1.6 6.4 0.00 0.00 0.00 74 1009.1
20260509193332 29 130 0.0 4.8 0.00 0.00 0.00 75 1009.2
20260509192359 29 114 0.0 4.8 0.00 0.00 0.00 76 1009.4
20260509191331 29 85 0.0 4.8 0.00 0.00 0.00 75 1009.4
20260509190337 29 121 1.6 6.4 0.00 0.00 0.00 76 1009.5
20260509185324 28 129 1.6 4.8 0.00 0.00 0.00 76 1009.6
20260509184332 28 254 0.0 4.8 0.00 0.00 0.00 76 1009.6
20260509183339 28 131 4.8 11.3 0.00 0.00 0.00 78 1009.7
20260509182327 28 147 3.2 11.3 0.00 0.00 0.00 78 1009.8
20260509181335 28 119 4.8 9.7 0.00 0.00 0.00 79 1009.8
20260509180327 28 133 1.6 6.4 0.00 0.00 0.00 80 1010.2
20260509175335 28 119 4.8 9.7 0.00 0.00 0.00 78 1010.3
20260509174341 27 175 1.6 4.8 0.00 0.00 0.00 80 1010.5
20260509173330 27 164 1.6 8.0 0.00 0.00 0.00 81 1010.7
20260509172337 27 138 3.2 4.8 0.00 0.00 0.00 82 1010.9
20260509171323 27 159 0.0 4.8 0.00 0.00 0.00 83 1011.0
20260509170352 27 153 1.6 4.8 0.00 0.00 0.00 81 1010.8
20260509165342 27 173 0.0 0.0 0.00 0.00 0.00 83 1010.5
20260509164331 27 204 0.0 0.0 0.00 0.00 0.00 83 1010.7
20260509163339 27 10 0.0 0.0 0.00 0.00 0.00 84 1010.7
20260509162327 26 117 0.0 0.0 0.00 0.00 0.00 86 1010.8
20260509161335 26 11 0.0 0.0 0.00 0.00 0.00 87 1011.0
20260509160342 26 5 0.0 0.0 0.00 0.00 0.00 88 1011.0
20260509155334 25 29 0.0 0.0 0.00 0.00 0.00 89 1011.2
20260509154341 25 335 0.0 0.0 0.00 0.00 0.00 90 1011.2
20260509153350 25 11 0.0 0.0 0.00 0.00 0.00 91 1011.1
20260509152338 25 11 0.0 0.0 0.00 0.00 0.00 91 1011.1
20260509151331 25 11 0.0 0.0 0.00 0.00 0.00 92 1010.8
20260509150340 25 11 0.0 0.0 0.00 0.00 0.00 93 1010.9
20260509145349 25 11 0.0 0.0 0.00 0.00 0.00 94 1010.6
20260509144339 25 12 0.0 0.0 0.00 0.00 0.00 94 1010.2
20260509143348 25 12 0.0 0.0 0.00 0.00 0.00 94 1010.2
20260509142353 24 21 0.0 0.0 0.00 0.00 0.00 94 1010.0
20260509141400 24 21 0.0 0.0 0.00 0.00 0.00 95 1009.8
20260509140326 24 113 0.0 0.0 0.00 0.00 0.00 95 1010.1
20260509135334 24 112 0.0 0.0 0.00 0.00 0.00 95 1010.2
20260509134340 24 123 0.0 0.0 0.00 0.00 0.00 95 1010.1
20260509133330 24 123 0.0 0.0 0.00 0.00 0.00 95 1010.4
20260509132323 24 123 0.0 0.0 0.00 0.00 0.00 95 1010.7
20260509131331 24 180 0.0 1.6 0.00 0.00 0.00 95 1010.7
20260509130339 24 171 0.0 1.6 0.00 0.00 0.00 95 1010.9
20260509125327 23 125 0.0 0.0 0.00 0.00 0.00 95 1010.8
20260509124356 23 126 0.0 1.6 0.00 0.00 0.00 95 1010.9
20260509123343 23 126 0.0 0.0 0.00 0.00 0.00 95 1010.9
20260509122330 23 126 0.0 4.8 0.00 0.00 0.00 95 1010.5
20260509121342 23 115 0.0 0.0 0.00 0.00 0.00 95 1010.6